Terminal Aerodrome Forecast
Issued by NWS

Home | Current Version | Previous Version | Text Only | Print | Product List | Glossary On
Versions: 1 2 3 4 5 6 7 8 9 10 11 12 13 14 15 16 17 18 19 20 21 22 23 24 25 26 27 28 29 30 31 32 33 34 35 36 37 38 39 40 41 42 43 44 45 46 47 48 49 50
000
FTUS45 KGJT 011120
TAFASE
TAF
KASE 011120Z 0112/0212 13009KT P6SM BKN050
     FM011800 13007KT P6SM VCSH OVC090
     FM020300 14007KT P6SM VCSH OVC030
     FM020500 15006KT P6SM VCSH OVC035
     FM020700 15005KT P6SM OVC040=

USA.gov is the U.S. government's official web portal to all federal, state and local government web resources and services.